Regional Weather Roundup
Issued by NWS

Home | Current Version | Previous Version | Graphics & Text | Print | Product List | Glossary On
Versions: 1 2 3 4 5 6 7 8 9 10 11 12 13 14 15 16 17 18 19 20 21 22 23 24 25 26 27 28 29 30 31 32 33 34 35 36 37 38 39 40 41 42 43 44 45 46 47 48 49 50
000
ASUS43 KLSX 122357
RWRMO

WEATHER SUMMARY FOR MISSOURI
NATIONAL WEATHER SERVICE SPRINGFIELD MO
600 PM CST TUE DEC 12 2017

NOTE: "FAIR" INDICATES FEW OR NO CLOUDS BELOW 12,000 FEET WITH NO
       SIGNIFICANT WEATHER AND/OR OBSTRUCTIONS TO VISIBILITY.
       CURRENT SKY AND/OR WEATHER CONDITIONS ARE NOT AVAILABLE FOR
       CHILLICOTHE AND FARMINGTON.

MOZ001>031-035>038-043-044-053-054-130100-
...NORTHERN AND WESTERN MISSOURI...

CITY           SKY/WX    TMP DP  RH WIND       PRES   REMARKS
KANSAS CTY INT CLEAR     32  21  64 SW7       30.11F WCI  26
6HR MIN TEMP:  32; 6HR MAX TEMP:  40;

LEE`S SUMMIT   CLEAR     35  21  56 SW5       30.13F
6HR MIN TEMP:  33; 6HR MAX TEMP:  39;

ST JOSEPH      PTCLDY    31  23  72 S6        30.10F WCI  25
6HR MIN TEMP:  31; 6HR MAX TEMP:  40;

CHILLICOTHE      N/A     29  18  63 CALM      30.13F
6HR MIN TEMP:  28; 6HR MAX TEMP:  37;


$$
MOZ066>068-077>081-088>096-101>105-130100-
...SOUTHWEST MISSOURI...

CITY           SKY/WX    TMP DP  RH WIND       PRES   REMARKS
SPRINGFIELD    CLOUDY    32   8  36 W5        30.16F WCI  27
6HR MIN TEMP:  32; 6HR MAX TEMP:  40;

JOPLIN         CLEAR     36  16  44 SW5       30.19F
6HR MIN TEMP:  35; 6HR MAX TEMP:  42;

BRANSON        CLEAR     36   7  30 NW5       30.17F

$$
MOZ032>034-039>042-045>050-055>058-069>072-130100-
...CENTRAL MISSOURI...

CITY           SKY/WX    TMP DP  RH WIND       PRES   REMARKS
COLUMBIA       NOT AVBL
JEFFERSON CITY CLEAR     33   6  32 SW3       30.16F
6HR MIN TEMP:  32; 6HR MAX TEMP:  37;

ROLLA          CLEAR     27   4  37 W5        30.14F WCI  22
6HR MIN TEMP:  27; 6HR MAX TEMP:  35;

SEDALIA        PTCLDY    34  10  37 SW5       30.15F WCI  30
6HR MIN TEMP:  33; 6HR MAX TEMP:  39;

WARRENSBURG    CLEAR     32  18  55 SW5       30.15F WCI  27

$$
MOZ051-052-059>065-130100-
...EAST CENTRAL MISSOURI...

CITY           SKY/WX    TMP DP  RH WIND       PRES   REMARKS
ST LOUIS INTL  PTCLDY    31   3  30 W10       30.13F WCI  22
6HR MIN TEMP:  30; 6HR MAX TEMP:  37;


$$
MOZ072>076-082>087-097>100-106>115-130100-
...SOUTH CENTRAL AND SOUTHEAST MISSOURI...

CITY           SKY/WX    TMP DP  RH WIND       PRES   REMARKS
CAPE GIRARDEAU CLEAR     34   6  31 NW5       30.16R WCI  30
6HR MIN TEMP:  33; 6HR MAX TEMP:  41;

POPLAR BLUFF   CLEAR     37  10  32 W3        30.16S
6HR MIN TEMP:  37; 6HR MAX TEMP:  46;

WEST PLAINS    CLEAR     32   8  36 NW3       30.15S
6HR MIN TEMP:  32; 6HR MAX TEMP:  43;


$$



USA.gov is the U.S. government's official web portal to all federal, state and local government web resources and services.